When you browse on this site, cookies collect data to enhance your experience and personalize the content and advertising you see.
Visit our Privacy Policy to learn more. By continuing to use the site, you agree to this use of cookies and data.
  • In Switzerland
  • List of Countries
  • For 7 days
  • Water Temperature
  • Satellite Maps
  • Weather Map
  • Weather Widgets
  • user-avatar
    Login

    Hourly Weather Hrazdan

    Today, 25 June, Tuesday

    Time Temperature Precipitation Wind Pressure Humidity
    00:00 +16°C° 0.1 mm 2 mps 615 mmHg 80%
    01:00 +15°C° 0 mm 2 mps 614 mmHg 81%
    02:00 +15°C° 0 mm 2 mps 614 mmHg 82%
    03:00 +14°C° 0 mm 3 mps 614 mmHg 85%
    04:00 +16°C° 0 mm 2 mps 615 mmHg 85%
    05:00 +16°C° 0 mm 2 mps 615 mmHg 84%
    06:00 +17°C° 0 mm 2 mps 615 mmHg 84%
    07:00 +19°C° 0.1 mm 2 mps 616 mmHg 80%
    08:00 +20°C° 0.1 mm 2 mps 616 mmHg 75%
    09:00 +23°C° 0 mm 2 mps 617 mmHg 70%
    10:00 +24°C° 0.3 mm 2 mps 617 mmHg 67%
    11:00 +25°C° 0.3 mm 2 mps 617 mmHg 64%
    12:00 +26°C° 0.3 mm 2 mps 617 mmHg 61%
    13:00 +26°C° 0.4 mm 2 mps 617 mmHg 62%
    14:00 +26°C° 0.4 mm 2 mps 617 mmHg 63%
    15:00 +25°C° 0 mm 3 mps 617 mmHg 63%
    16:00 +25°C° 0.4 mm 3 mps 616 mmHg 67%
    17:00 +24°C° 0.4 mm 3 mps 616 mmHg 72%
    18:00 +22°C° 0.4 mm 3 mps 616 mmHg 76%
    19:00 +20°C° 0.2 mm 3 mps 616 mmHg 78%
    20:00 +19°C° 0.2 mm 2 mps 615 mmHg 79%
    21:00 +17°C° 0.2 mm 2 mps 615 mmHg 81%
    22:00 +17°C° 0 mm 2 mps 615 mmHg 80%
    23:00 +16°C° 0 mm 2 mps 615 mmHg 79%

    Tomorrow, 26 June, Wednesday

    Time Temperature Precipitation Wind Pressure Humidity
    00:00 +16°C° 0 mm 2 mps 615 mmHg 79%
    01:00 +16°C° 0 mm 2 mps 615 mmHg 78%
    02:00 +15°C° 0 mm 2 mps 615 mmHg 77%
    03:00 +15°C° 0 mm 2 mps 615 mmHg 76%
    04:00 +16°C° 0 mm 2 mps 615 mmHg 77%
    05:00 +17°C° 0 mm 2 mps 616 mmHg 77%
    06:00 +18°C° 0 mm 1 mps 616 mmHg 77%
    07:00 +19°C° 0 mm 2 mps 616 mmHg 72%
    08:00 +21°C° 0 mm 2 mps 617 mmHg 67%
    09:00 +23°C° 0 mm 2 mps 617 mmHg 61%
    10:00 +24°C° 0.3 mm 2 mps 617 mmHg 60%
    11:00 +25°C° 0.3 mm 2 mps 617 mmHg 58%
    12:00 +26°C° 0.3 mm 2 mps 618 mmHg 56%
    13:00 +26°C° 0.4 mm 2 mps 617 mmHg 56%
    14:00 +26°C° 0.4 mm 2 mps 617 mmHg 56%
    15:00 +26°C° 0.4 mm 2 mps 617 mmHg 56%
    16:00 +25°C° 0.5 mm 2 mps 616 mmHg 61%
    17:00 +24°C° 0.5 mm 2 mps 616 mmHg 67%
    18:00 +23°C° 0.5 mm 2 mps 615 mmHg 72%
    19:00 +20°C° 0.3 mm 2 mps 615 mmHg 75%
    20:00 +19°C° 0.3 mm 2 mps 614 mmHg 77%
    21:00 +17°C° 0.3 mm 2 mps 614 mmHg 80%
    22:00 +17°C° 0.2 mm 2 mps 614 mmHg 80%
    23:00 +16°C° 0.2 mm 2 mps 614 mmHg 80%

    Day after tomorrow, 27 June, Thursday

    Time Temperature Precipitation Wind Pressure Humidity
    00:00 +16°C° 0.2 mm 2 mps 614 mmHg 80%
    01:00 +16°C° 0.1 mm 2 mps 614 mmHg 80%
    02:00 +16°C° 0.1 mm 2 mps 614 mmHg 81%
    03:00 +16°C° 0.1 mm 2 mps 613 mmHg 81%
    04:00 +16°C° 0 mm 1 mps 614 mmHg 81%
    05:00 +16°C° 0 mm 1 mps 614 mmHg 81%
    06:00 +16°C° 0 mm 1 mps 614 mmHg 82%
    07:00 +18°C° 0.1 mm 2 mps 614 mmHg 78%
    08:00 +19°C° 0.1 mm 2 mps 614 mmHg 75%
    09:00 +20°C° 0.1 mm 2 mps 615 mmHg 71%
    10:00 +21°C° 0.6 mm 2 mps 614 mmHg 70%
    11:00 +23°C° 0.6 mm 2 mps 614 mmHg 69%
    12:00 +23°C° 0.6 mm 2 mps 614 mmHg 68%
    13:00 +23°C° 0.6 mm 2 mps 614 mmHg 68%
    14:00 +22°C° 0.6 mm 3 mps 613 mmHg 69%
    15:00 +22°C° 0.6 mm 3 mps 613 mmHg 69%
    16:00 +22°C° 0.5 mm 3 mps 613 mmHg 73%
    17:00 +21°C° 0.5 mm 3 mps 612 mmHg 76%
    18:00 +20°C° 0.5 mm 3 mps 612 mmHg 79%
    19:00 +19°C° 0.6 mm 3 mps 612 mmHg 82%
    20:00 +17°C° 0.6 mm 2 mps 611 mmHg 85%
    21:00 +16°C° 0.6 mm 2 mps 611 mmHg 87%
    22:00 +15°C° 0.2 mm 2 mps 611 mmHg 88%
    23:00 +15°C° 0.2 mm 2 mps 611 mmHg 88%

    28 June, Friday

    Time Temperature Precipitation Wind Pressure Humidity
    00:00 +15°C° 0.2 mm 1 mps 610 mmHg 88%
    01:00 +15°C° 0.1 mm 2 mps 610 mmHg 88%
    02:00 +14°C° 0.1 mm 2 mps 610 mmHg 88%
    03:00 +14°C° 0.1 mm 2 mps 610 mmHg 88%
    04:00 +15°C° 0 mm 2 mps 610 mmHg 89%
    05:00 +15°C° 0 mm 2 mps 610 mmHg 89%
    06:00 +15°C° 0 mm 1 mps 610 mmHg 89%
    07:00 +16°C° 0.3 mm 2 mps 610 mmHg 85%
    08:00 +17°C° 0.3 mm 2 mps 610 mmHg 82%
    09:00 +19°C° 0.3 mm 2 mps 610 mmHg 78%
    10:00 +19°C° 0.7 mm 2 mps 610 mmHg 76%
    11:00 +20°C° 0.7 mm 2 mps 610 mmHg 73%
    12:00 +21°C° 0.7 mm 2 mps 610 mmHg 71%
    13:00 +21°C° 0.7 mm 2 mps 609 mmHg 71%
    14:00 +21°C° 0.7 mm 2 mps 609 mmHg 70%
    15:00 +23°C° 0.7 mm 2 mps 609 mmHg 70%
    16:00 +21°C° 1.8 mm 2 mps 608 mmHg 75%
    17:00 +20°C° 1.8 mm 3 mps 608 mmHg 79%
    18:00 +19°C° 1.8 mm 3 mps 608 mmHg 83%
    19:00 +17°C° 2.1 mm 2 mps 608 mmHg 84%
    20:00 +16°C° 2.1 mm 2 mps 608 mmHg 84%
    21:00 +15°C° 2.1 mm 1 mps 608 mmHg 84%
    22:00 +14°C° 0 mm 1 mps 608 mmHg 83%
    23:00 +14°C° 0 mm 1 mps 607 mmHg 82%

    29 June, Saturday

    Time Temperature Precipitation Wind Pressure Humidity
    00:00 +14°C° 0 mm 1 mps 607 mmHg 81%
    01:00 +14°C° 0 mm 1 mps 607 mmHg 81%
    02:00 +14°C° 0 mm 1 mps 607 mmHg 81%
    03:00 +13°C° 0 mm 1 mps 607 mmHg 81%
    04:00 +14°C° 0 mm 1 mps 607 mmHg 81%
    05:00 +15°C° 0 mm 1 mps 607 mmHg 81%
    06:00 +15°C° 0 mm 1 mps 607 mmHg 81%
    07:00 +18°C° 0.3 mm 1 mps 608 mmHg 77%
    08:00 +19°C° 0.3 mm 1 mps 608 mmHg 73%
    09:00 +21°C° 0.3 mm 1 mps 609 mmHg 69%
    10:00 +21°C° 1.3 mm 1 mps 609 mmHg 67%
    11:00 +22°C° 1.3 mm 1 mps 609 mmHg 66%
    12:00 +23°C° 1.3 mm 2 mps 609 mmHg 64%
    13:00 +23°C° 1.3 mm 2 mps 609 mmHg 63%
    14:00 +23°C° 1.3 mm 2 mps 608 mmHg 62%
    15:00 +23°C° 1.3 mm 2 mps 608 mmHg 61%
    16:00 +21°C° 1.9 mm 2 mps 608 mmHg 70%
    17:00 +19°C° 1.9 mm 2 mps 607 mmHg 79%
    18:00 +17°C° 1.9 mm 2 mps 607 mmHg 88%
    19:00 +16°C° 1.6 mm 2 mps 607 mmHg 88%
    20:00 +15°C° 1.6 mm 2 mps 608 mmHg 89%
    21:00 +15°C° 1.6 mm 1 mps 608 mmHg 89%
    22:00 +14°C° 0.7 mm 1 mps 608 mmHg 90%
    23:00 +14°C° 0.7 mm 1 mps 608 mmHg 90%

    30 June, Sunday

    Time Temperature Precipitation Wind Pressure Humidity
    00:00 +13°C° 0.7 mm 1 mps 608 mmHg 90%
    01:00 +13°C° 0.3 mm 1 mps 608 mmHg 90%
    02:00 +13°C° 0.3 mm 1 mps 608 mmHg 90%
    03:00 +13°C° 0.3 mm 1 mps 608 mmHg 90%
    04:00 +13°C° 0.2 mm 1 mps 608 mmHg 91%
    05:00 +13°C° 0.2 mm 1 mps 608 mmHg 91%
    06:00 +14°C° 0.2 mm 1 mps 608 mmHg 92%
    07:00 +15°C° 0.4 mm 1 mps 608 mmHg 89%
    08:00 +16°C° 0.4 mm 1 mps 609 mmHg 85%
    09:00 +18°C° 0.4 mm 1 mps 609 mmHg 82%
    10:00 +19°C° 1 mm 1 mps 609 mmHg 79%
    11:00 +19°C° 1 mm 1 mps 609 mmHg 76%
    12:00 +19°C° 1 mm 2 mps 609 mmHg 73%
    13:00 +19°C° 1.8 mm 2 mps 609 mmHg 73%
    14:00 +19°C° 1.8 mm 2 mps 609 mmHg 73%
    15:00 +19°C° 1.8 mm 2 mps 609 mmHg 72%
    16:00 +18°C° 2.1 mm 2 mps 608 mmHg 77%
    17:00 +17°C° 2.1 mm 2 mps 608 mmHg 82%
    18:00 +15°C° 2.1 mm 2 mps 608 mmHg 87%
    19:00 +14°C° 1.7 mm 2 mps 608 mmHg 90%
    20:00 +13°C° 1.7 mm 2 mps 608 mmHg 92%
    21:00 +12°C° 1.7 mm 2 mps 608 mmHg 94%
    22:00 +12°C° 0.7 mm 2 mps 608 mmHg 94%
    23:00 +12°C° 0.7 mm 2 mps 608 mmHg 94%
    Show more